M0CJS Weather Reports


time (UTC)temp
C
wind
direction
speed
KPH
gust
KPH
rain 1hr
cm
rain 24hr
cm
rain mn
cm
humidity
%
barometer
mb
20260831062016 12 248 3.2 9.7 0.00 1.35 1.32 98 1008.1
20260831061036 12 225 3.2 11.3 0.00 1.35 1.32 99 1007.8
20260831060016 12 225 3.2 11.3 0.00 1.35 1.32 99 1007.7
20260831055016 12 248 3.2 9.7 0.00 1.35 1.32 98 1007.6
20260831054016 11 225 1.6 8.0 0.00 1.35 1.32 98 1007.5
20260831053016 11 248 1.6 6.4 0.00 1.35 1.32 98 1007.3
20260831052016 12 248 1.6 6.4 0.00 1.35 1.32 98 1007.0
20260831051016 11 0.0 3.2 0.00 1.35 1.32 98 1007.0
20260831050016 12 270 1.6 3.2 0.00 1.35 1.32 98 1006.8
20260831045036 12 270 3.2 6.4 0.00 1.35 1.32 98 1006.7
20260831044016 12 248 1.6 8.0 0.00 1.35 1.32 98 1006.7
20260831043016 12 248 3.2 6.4 0.00 1.35 1.32 98 1006.6
20260831042016 12 225 3.2 9.7 0.00 1.35 1.32 98 1006.5
20260831041016 12 248 3.2 12.9 0.00 1.35 1.32 98 1006.4
20260831040016 12 225 4.8 11.3 0.00 1.35 1.32 98 1006.2
20260831035016 12 225 4.8 12.9 0.00 1.35 1.32 98 1006.2
20260831034016 12 225 3.2 9.7 0.00 1.35 1.32 98 1006.2
20260831033016 12 225 4.8 12.9 0.00 1.35 1.32 98 1006.1
20260831032016 12 225 4.8 11.3 0.00 1.35 1.32 98 1006.2
20260831031016 12 225 3.2 9.7 0.00 1.35 1.32 98 1006.1
20260831030016 12 225 3.2 8.0 0.00 1.37 1.32 98 1006.0
20260831025016 12 203 8.0 16.1 0.03 1.37 1.32 98 1005.8
20260831024036 12 203 8.0 12.9 0.05 1.37 1.32 98 1005.7
20260831023016 12 203 6.4 9.7 0.10 1.37 1.32 98 1005.7
20260831022016 12 225 3.2 9.7 0.23 1.37 1.32 98 1005.5
20260831021016 12 225 4.8 9.7 0.41 1.37 1.32 98 1005.6
20260831020016 12 203 4.8 8.0 0.66 1.37 1.32 98 1005.5
20260831015036 13 225 1.6 6.4 0.94 1.37 1.30 98 1005.5
20260831014036 13 225 1.6 4.8 1.19 1.35 1.27 98 1005.6
20260831013056 12 270 3.2 4.8 1.22 1.27 1.22 98 1005.5
20260831012036 12 23 4.8 8.0 1.09 1.17 1.09 97 1004.9
20260831011035 12 23 4.8 9.7 0.91 0.99 0.91 97 1005.1
20260831010016 12 293 4.8 9.7 0.66 0.71 0.66 96 1005.4
20260831005016 13 293 12.9 24.1 0.36 0.43 0.36 96 1005.6
20260831004016 15 225 8.0 19.3 0.08 0.15 0.08 94 1005.5
20260831003015 15 0.0 4.8 0.00 0.05 0.00 92 1005.2
20260831002016 15 203 4.8 14.5 0.00 0.05 0.00 91 1005.2
20260831001015 15 180 3.2 9.7 0.00 0.05 0.00 91 1005.1
20260831000015 15 180 4.8 12.9 0.00 0.05 0.00 91 1005.1
20260830235016 15 158 3.2 6.4 0.00 0.05 0.00 92 1005.3
20260830234016 15 180 4.8 11.3 0.00 0.05 0.00 92 1005.4
20260830233015 15 203 8.0 14.5 0.00 0.05 0.00 92 1005.4
20260830232015 15 203 6.4 14.5 0.00 0.05 0.00 92 1005.6
20260830231015 15 225 3.2 6.4 0.00 0.05 0.00 92 1005.6
20260830230015 15 225 4.8 14.5 0.00 0.13 0.05 91 1005.9
20260830225016 15 203 8.0 22.5 0.00 0.13 0.05 91 1005.8
20260830224016 15 225 9.7 16.1 0.00 0.13 0.05 89 1005.8
20260830223055 16 203 16.1 27.4 0.00 0.13 0.05 88 1005.8
20260830222016 16 203 14.5 27.4 0.00 0.13 0.05 87 1005.7
20260830221015 16 203 16.1 33.8 0.00 0.13 0.05 85 1005.8
20260830220016 16 225 16.1 32.2 0.00 0.15 0.05 84 1005.8
20260830215015 17 203 17.7 40.2 0.00 0.15 0.05 84 1005.6
20260830214015 17 203 12.9 48.3 0.00 0.15 0.05 84 1005.4
20260830213035 17 158 9.7 27.4 0.00 0.15 0.05 84 1005.3
20260830212015 17 158 6.4 12.9 0.00 0.15 0.05 85 1005.4
20260830211015 17 158 6.4 22.5 0.00 0.15 0.05 85 1005.5
20260830210015 17 158 3.2 14.5 0.03 0.15 0.05 86 1005.5
20260830205015 16 158 1.6 8.0 0.03 0.15 0.05 93 1005.6
20260830204015 16 0.0 0.0 0.03 0.15 0.05 94 1005.8
20260830203015 16 0.0 1.6 0.03 0.15 0.05 94 1005.9
20260830202015 16 270 1.6 4.8 0.03 0.15 0.05 93 1006.1
20260830201015 16 270 3.2 14.5 0.03 0.15 0.05 91 1006.3
20260830200035 17 203 8.0 20.9 0.00 0.15 0.05 84 1006.1
20260830195017 17 180 4.8 17.7 0.00 0.15 0.05 85 1006.2
20260830194017 16 0.0 0.0 0.00 0.15 0.05 91 1006.3
20260830193017 16 0.0 3.2 0.00 0.15 0.05 90 1006.2
20260830192018 16 0.0 1.6 0.00 0.15 0.05 90 1006.3
20260830191037 16 0.0 0.0 0.00 0.15 0.05 89 1006.3
20260830190017 16 0.0 1.6 0.00 0.15 0.05 89 1006.4
20260830185017 16 0.0 3.2 0.00 0.15 0.05 89 1006.7
20260830184017 16 315 1.6 6.4 0.00 0.15 0.05 88 1006.7
20260830183017 17 270 4.8 12.9 0.00 0.15 0.05 87 1006.8
20260830182037 17 270 4.8 12.9 0.00 0.15 0.05 87 1007.0
20260830181017 17 270 4.8 11.3 0.00 0.15 0.05 88 1006.9
20260830180017 18 270 4.8 6.4 0.00 0.15 0.05 86 1006.9
20260830175017 18 270 3.2 6.4 0.00 0.15 0.05 85 1006.9
20260830174017 18 248 3.2 6.4 0.00 0.15 0.05 85 1007.0
20260830173017 18 270 3.2 11.3 0.00 0.15 0.05 86 1006.9
20260830172017 18 270 9.7 32.2 0.00 0.15 0.05 81 1006.9
20260830171017 20 203 11.3 25.7 0.00 0.15 0.05 71 1006.7
20260830170017 20 203 14.5 25.7 0.00 0.15 0.05 71 1006.7
20260830165037 20 203 11.3 24.1 0.00 0.15 0.05 71 1006.9
20260830164017 20 203 8.0 17.7 0.00 0.15 0.05 74 1006.8
20260830163022 20 203 8.0 19.3 0.00 0.15 0.05 74 1006.9
20260830162017 20 203 11.3 33.8 0.00 0.15 0.05 73 1006.9
20260830161017 21 203 9.7 22.5 0.00 0.15 0.05 72 1007.2
20260830160017 21 203 12.9 24.1 0.00 0.15 0.05 71 1007.2
20260830155017 21 225 9.7 22.5 0.00 0.15 0.05 72 1007.1
20260830154057 21 203 19.3 38.6 0.00 0.15 0.05 70 1007.1
20260830153017 21 203 12.9 20.9 0.00 0.15 0.05 70 1007.1
20260830152037 21 180 8.0 20.9 0.00 0.15 0.05 69 1007.1
20260830151036 21 203 12.9 30.6 0.00 0.15 0.05 68 1007.1
20260830150016 21 203 11.3 22.5 0.00 0.30 0.05 69 1007.3
20260830145016 21 203 9.7 20.9 0.00 0.30 0.05 70 1007.7
20260830144016 21 203 8.0 20.9 0.00 0.30 0.05 72 1007.9
20260830143016 21 180 9.7 20.9 0.00 0.30 0.05 72 1008.2
20260830142016 21 203 12.9 29.0 0.00 0.30 0.05 72 1008.2
20260830141017 21 180 11.3 32.2 0.00 0.30 0.05 72 1008.2
20260830140037 21 180 8.0 20.9 0.00 0.36 0.05 72 1008.3
20260830135016 22 180 11.3 27.4 0.00 0.36 0.05 69 1008.4
20260830134017 22 203 14.5 33.8 0.00 0.36 0.05 67 1008.4
20260830133016 22 180 9.7 22.5 0.00 0.36 0.05 66 1008.5
20260830132016 23 203 14.5 35.4 0.00 0.36 0.05 66 1008.5
20260830131016 23 203 19.3 40.2 0.00 0.36 0.05 63 1008.7
20260830130016 23 203 14.5 32.2 0.00 0.36 0.05 62 1008.7
20260830125016 23 203 12.9 27.4 0.00 0.36 0.05 62 1008.9
20260830124016 23 203 16.1 30.6 0.00 0.36 0.05 62 1008.9
20260830123016 22 203 14.5 40.2 0.00 0.36 0.05 64 1008.9
20260830122016 22 203 11.3 24.1 0.00 0.36 0.05 67 1009.0
20260830121016 22 203 12.9 29.0 0.00 0.36 0.05 69 1009.1
20260830120016 22 203 11.3 22.5 0.00 0.43 0.05 69 1009.2
20260830115016 21 203 14.5 24.1 0.00 0.43 0.05 70 1009.3
20260830114016 22 203 9.7 22.5 0.00 0.43 0.05 72 1009.4
20260830113016 21 203 11.3 35.4 0.00 0.43 0.05 74 1009.4
20260830112016 21 225 9.7 20.9 0.00 0.43 0.05 76 1009.7
20260830111016 21 203 9.7 24.1 0.00 0.43 0.05 76 1009.8
20260830110036 21 203 8.0 20.9 0.00 0.51 0.05 77 1009.9
20260830105016 20 225 8.0 14.5 0.00 0.51 0.05 76 1010.1
20260830104016 20 225 12.9 32.2 0.00 0.51 0.05 76 1010.0
20260830103016 20 225 8.0 20.9 0.00 0.51 0.05 78 1010.1
20260830102016 20 203 11.3 30.6 0.00 0.51 0.05 77 1010.1
20260830101016 20 203 12.9 29.0 0.00 0.51 0.05 78 1010.2
20260830100036 21 203 11.3 20.9 0.00 0.51 0.05 78 1010.4
20260830095016 20 203 11.3 24.1 0.00 0.51 0.05 78 1010.3
20260830094016 20 203 11.3 29.0 0.00 0.51 0.05 80 1010.3
20260830093016 20 203 11.3 27.4 0.00 0.51 0.05 80 1010.4
20260830092016 20 225 8.0 20.9 0.00 0.51 0.05 80 1010.3
20260830091016 20 203 9.7 22.5 0.00 0.51 0.05 81 1010.4
20260830090016 20 225 4.8 14.5 0.00 0.64 0.05 84 1010.4
20260830085016 19 225 6.4 16.1 0.00 0.64 0.05 87 1010.4
20260830084016 18 180 1.6 9.7 0.00 0.64 0.05 87 1010.4
20260830083015 18 225 6.4 14.5 0.00 0.64 0.05 88 1010.4
20260830082016 17 203 6.4 12.9 0.00 0.64 0.05 92 1010.3
20260830081016 17 203 4.8 9.7 0.00 0.64 0.05 93 1010.3
20260830080016 16 203 6.4 16.1 0.00 0.64 0.05 94 1010.2
20260830075035 16 203 3.2 9.7 0.00 0.64 0.05 95 1010.2
20260830074016 16 203 6.4 20.9 0.00 0.64 0.05 96 1010.2
20260830073015 16 203 8.0 16.1 0.00 0.64 0.05 96 1010.2
20260830072015 16 203 9.7 16.1 0.00 0.64 0.05 97 1010.2
20260830071035 15 203 8.0 14.5 0.00 0.64 0.05 98 1010.0
20260830070016 15 225 4.8 9.7 0.00 0.64 0.05 99 1010.0
20260830065016 15 225 6.4 14.5 0.00 0.64 0.05 99 1010.0
20260830064036 15 203 6.4 16.1 0.00 0.64 0.05 99 1009.9
20260830063016 15 203 8.0 17.7 0.00 0.64 0.05 99 1009.8